Regional Weather Roundup
Issued by NWS Grand Forks, ND

Home | Current Version | Previous Version | Text Only | Print | Product List | Glossary Off
Versions: 1 2 3 4 5 6 7 8 9 10 11 12 13 14 15 16 17 18 19 20 21 22 23 24 25 26 27 28 29 30 31 32 33 34 35 36 37 38 39 40 41 42 43 44 45 46 47 48 49 50

000
ASUS43 KFGF 291331
RWRFGF
PRAIRIE TO PINES  WEATHER ROUNDUP
NATIONAL WEATHER SERVICE EASTERN NORTH DAKOTA/GRAND FORKS ND
800 AM CDT FRI JUL 29 2016

 **SATELLITE DATA USED TO AUGMENT SKY COVER AT AUTOMATED STATIONS**
 *****  WEATHER ACROSS EASTERN NORTH DAKOTA  *****

CITY           SKY/WX    TMP DP  RH WIND       PRES   REMARKS
GRAND FORKS    FAIR      62  57  83 NW3       30.09R
GRAND FRKS AFB FAIR      61  56  84 N2        30.10R
DEVILS LAKE    FAIR      62  59  90 CALM      30.12R
FARGO          FAIR      63  57  81 N3        30.08S
WAHPETON ARPT  FAIR      63  59  88 S3        30.09S
$$

 ***** WEATHER ACROSS CENTRAL AND WESTERN NORTH DAKOTA  *****

CITY           SKY/WX    TMP DP  RH WIND       PRES   REMARKS
BISMARCK       SUNNY     64  59  83 CALM      30.10R
MINOT          FAIR      61  55  81 CALM      30.09F
JAMESTOWN      PTSUNNY   63  59  87 CALM      30.10S
MINOT AFB      FAIR      58  54  86 CALM      30.09S
GARRISON         N/A     62  61  96 CALM      30.10R
WILLISTON      SUNNY     58  54  86 CALM      30.10S
DICKINSON      PTSUNNY   60  58  92 CALM      30.11R
HETTINGER      MOSUNNY   56  55  97 W3        30.13S
$$

 *****  OTHER AIRPORT OBSERVATIONS IN OUR AREA  *****

CITY           SKY/WX    TMP DP  RH WIND       PRES   REMARKS
WALHALLA       FAIR      64  59  82 CALM      30.11S
GRAFTON AIRPOR FAIR      63  59  88 CALM      30.12R
VALLEY CITY AR FAIR      63  61  94 CALM      30.12S
CANDO          FAIR      59  59 100 CALM      30.14S
CAVALIER APRT  FAIR      61  57  88 CALM      30.11R
GWINNER        FAIR      64  61  88 NE5       30.10S
ROLLA          FAIR      63  59  88 SW6       30.13S
 ***** THE ABOVE OBSERVATIONS ARE NON NWS ARE NOT QUALITY
       CONTROLLED AND MAY MIS-REPORT RAIN FOR SNOW...
$$

  *****  WEATHER ACROSS NORTHERN MINNESOTA  *****

CITY           SKY/WX    TMP DP  RH WIND       PRES   REMARKS
FLAG ISLAND    FAIR      68  57  68 CALM      30.09R
WARROAD        FAIR      64  61  88 N3        30.10R
ROSEAU         FAIR      61  55  82 CALM      30.10R
HALLOCK        FAIR      63  59  88 CALM      30.09S
THF RVR FALLS  FAIR      62  57  83 CALM      30.11R
BAUDETTE       FAIR      60  55  83 E3        30.09S
WASKISH        FAIR      63  59  88 CALM      30.09S
CROOKSTON      FAIR      57  57 100 CALM      30.10S
STEPHEN NDAWN    N/A     63  59  88 CALM        N/A
GREENBUSH NDAW   N/A     63  57  82 CALM        N/A
$$
  *****  WEATHER ACROSS CENTRAL AND WEST MINNESOTA  *****

CITY           SKY/WX    TMP DP  RH WIND       PRES   REMARKS
FOSSTON        FAIR      61  59  94 CALM      30.10S
BEMIDJI        FAIR      61  57  88 E3        30.10S
PARK RAPIDS    FAIR      62  58  86 S3        30.11R
ELBOW LAKE     FAIR      65  61  87 SE5       30.10F
WADENA         NOT AVBL
DETROIT LAKES  FAIR      64  61  88 CALM      30.10F
MOORHEAD       FAIR      63  59  88 CALM      30.09S
FERGUS FALLS   FAIR      66  64  94 CALM      30.10S
MORRIS MN      FAIR      66  61  82 SE3       30.10R
STAPLES        PTSUNNY   61  57  88 CALM      30.11S
$$
  *****  WEATHER ELSEWHERE ACROSS MINNESOTA  *****

CITY           SKY/WX    TMP DP  RH WIND       PRES   REMARKS
DULUTH         FAIR      62  53  72 E6        30.12S
INTRNTL FALLS  FAIR      60  55  83 SE3       30.10S
ELY            FAIR      61  54  77 CALM      30.13F
CLOQUET        FAIR      61  52  72 E6        30.12S
WHEATON        PTSUNNY   66  63  88 CALM      30.11S
BRAINERD       FAIR      62  56  80 E5        30.11S
HIBBING        FAIR      57  53  86 CALM      30.13S
ALEXANDRIA     FAIR      65  58  78 CALM      30.13R
SAINT CLOUD    FAIR      61  55  81 E3        30.10R
MINNEAPOLIS    PTSUNNY   64  55  72 NE8       30.07R
$$

  *****  WEATHER ACROSS SOUTH DAKOTA  *****

CITY           SKY/WX    TMP DP  RH WIND       PRES   REMARKS
SIOUX FALLS    FAIR      63  57  81 NE3       30.09R
BROOKINGS      FAIR      61  57  87 CALM      30.10R
WATERTOWN      FAIR      65  57  75 CALM      30.10R
HURON          PTSUNNY   65  58  78 E3        30.09S
SISSETON         N/A     63  60  90 N5        30.08S
ABERDEEN       MOSUNNY   66  60  81 SE3       30.09S
MITCHELL       MOSUNNY   63  59  87 N3        30.10R
PIERRE         CLOUDY    64  62  93 SW3       30.08S
MOBRIDGE       CLOUDY    69  60  73 E3        30.06S
RAPID CITY     SUNNY     58  57  97 CALM      30.12F
$$

  *****  SOME WEATHER IN NEARBY STATES *****

CITY           SKY/WX    TMP DP  RH WIND       PRES   REMARKS
GLASGOW MT     MOSUNNY   61  56  83 E8        30.06S
GREAT FALLS MT CLEAR     58  54  86 SW9       30.14F
CHEYENNE WY    SUNNY     59  57  93 SW8       30.24S FOG
SCOTTSBLUFF NE SUNNY     61  58  90 CALM      30.15S
OMAHA NE       PTSUNNY   68  61  78 N3        30.06R
DES MOINES IA  CLOUDY    67  61  81 N8        30.00R
DAVENPORT IA   CLOUDY    69  68  96 NE7       29.94S FOG
CHICAGO IL     PTSUNNY   74  69  85 NE6       29.93R
EAU CLAIRE WI  FAIR      63  55  75 NE7       30.06R
LA CROSSE WI   CLOUDY    66  58  75 N5        30.02R
$$

  *****  SOME NATIONAL WEATHER *****

CITY           SKY/WX    TMP DP  RH WIND       PRES   REMARKS
LA GUARDIA NY  LGT RAIN  71  68  90 N10       29.86R
RALEIGH NC     MOSUNNY   81  70  69 NW8       29.91R
ATLANTA GA     FAIR      78  72  81 W12       30.05S
NEW ORLEANS LA FAIR      85  76  74 CALM      30.04R HX  94
OKLAHOMA CITY  TSTM      67  65  93 N17G24    30.11R FOG
ALBUQUERQUE NM PTCLDY    70  49  47 SE9       30.19S
SALT LAKE CITY MOCLDY    76  41  28 SE9       30.04R
LOS ANGELES CA PTCLDY    69  65  86 W5        29.83R
BOISE ID       CLEAR     67  41  38 SE3       29.98S
SEATTLE WA     CLEAR     64  59  83 N6        30.02F
$$

*** WEATHER ACROSS MANITOBA...SASKATCHEWAN AND ONTARIO ***
                ***ONTARIO***

CITY           SKY/WX    TMP DP  RH WIND       PRES   REMARKS
GERALDTON      MOSUNNY   64  52  63 VRB2      30.13R
THUNDER BAY    SUNNY     61  55  82 SW3       30.12S
SIOUX LOOKOUT  MOSUNNY   63  57  82 VRB2      30.12R
TORONTO        PTSUNNY   68  57  68 N9        29.97R
BIG TROUT LK   MOSUNNY   66  55  68 W6        30.03S
PICKLE LAKE    MOSUNNY   66  55  68 S6        30.09S
DRYDEN         SUNNY     63  59  88 SE5       30.12R
KENORA         PTSUNNY   66  55  68 E3        30.11R
$$
                *** MANITOBA***

CITY           SKY/WX    TMP DP  RH WIND       PRES   REMARKS
BRANDON        MOSUNNY   59  55  88 SW5       30.10S
DAUPHIN        SUNNY     66  59  77 SW7       30.04S
ISLAND LAKE    MOSUNNY   68  59  73 S3        30.01F
PILOT MOUND      N/A     55  54  94 SW3         N/A
THE PAS        LGT RAIN  64  61  88 VRB2      29.96S
THOMPSON       CLOUDY    57  57 100 E6        30.00S FOG
WINNIPEG       MOSUNNY   61  57  88 S5        30.10R
LYNN LAKE      PTSUNNY   61  59  94 MISG      29.97R
CHURCHILL      MOSUNNY   54  48  82 VRB2      30.09R
GILLAM         PTSUNNY   54  50  87 E3        30.06R
$$
                ***SASKATCHEWAN***

CITY           SKY/WX    TMP DP  RH WIND       PRES   REMARKS
ESTEVAN        MOSUNNY   59  55  88 CALM      30.09S
KINDERSLEY     MOSUNNY   59  59 100 VRB2      30.03R
LLOYDMINSTER   MOSUNNY   57  55  94 VRB2      30.01S
PRINCE ALBERT  PTSUNNY   63  61  94 VRB2      29.98F
REGINA         PTSUNNY   57  50  77 SE8       30.06S
YORKTON        SUNNY     61  54  77 SW8       30.06S
N. BATTLEFORD  NOT AVBL
LA RONGE       LGT RAIN  63  61  94 S3        29.95F
SASKATOON      LGT RAIN  63  61  94 SW10      30.02R
SWIFT CURRENT  LGT RAIN  61  59  94 NW3       30.06S
$$
NOTE: THESE ARE AUTOMATED STATIONS WITH LIMITED QUALITY CONTROL
      "FAIR" INDICATES FEW OR NO CLOUDS BELOW 12,000 FEET WITH NO
      SIGNIFICANT WEATHER AND/OR OBSTRUCTIONS TO VISIBILITY.
      SKY/WX - SKY CONDITION AND SIGNIFICANT WEATHER.
      TMP - AIR TEMPERATURE.    DP   - DEWPOINT TEMPERATURE.
      RH  - RELATIVE HUMIDITY.  PRES - PRESSURE.
      HX  - HEAT INDEX.         WCI  - WIND CHILL INDEX.
$




USA.gov is the U.S. government's official web portal to all federal, state and local government web resources and services.